owner,sensor,date,latitude,longitude,vertical_datum,wind_speed,wind_to_direction,wind_speed_of_gust,qcFlag 
TCOON,ioos:station:TCOON:146:1,2019-10-23T16:30:00Z,28.1324,-97.0345,0.0,2.9,110.0,3.5,'11111222,11111222,11111222' 
TCOON,ioos:station:TCOON:146:1,2019-10-23T17:30:00Z,28.1324,-97.0345,0.0,3.0,114.0,3.6,'11111222,11111222,11111222' 
TCOON,ioos:station:TCOON:146:1,2019-10-23T18:30:00Z,28.1324,-97.0345,0.0,3.1,113.0,3.8,'11111222,11111222,11111222' 
TCOON,ioos:station:TCOON:146:1,2019-10-23T19:30:00Z,28.1324,-97.0345,0.0,3.3,108.0,4.4,'11111222,11111222,11111222' 
TCOON,ioos:station:TCOON:146:1,2019-10-23T20:30:00Z,28.1324,-97.0345,0.0,3.5,111.0,4.1,'11111222,11111222,11111222' 
TCOON,ioos:station:TCOON:146:1,2019-10-23T21:30:00Z,28.1324,-97.0345,0.0,3.4,110.0,4.4,'11111222,11111222,11111222' 
TCOON,ioos:station:TCOON:146:1,2019-10-23T22:30:00Z,28.1324,-97.0345,0.0,3.5,108.0,4.2,'11111222,11111222,11111222' 
TCOON,ioos:station:TCOON:146:1,2019-10-23T23:30:00Z,28.1324,-97.0345,0.0,3.4,106.0,4.1,'11111222,11111222,11111222' 
TCOON,ioos:station:TCOON:146:1,2019-10-24T00:30:00Z,28.1324,-97.0345,0.0,3.3,104.0,4.0,'11111222,11111222,11111222' 
TCOON,ioos:station:TCOON:146:1,2019-10-24T01:30:00Z,28.1324,-97.0345,0.0,3.6,102.0,4.2,'11111222,11111222,11111222' 
TCOON,ioos:station:TCOON:146:1,2019-10-24T02:30:00Z,28.1324,-97.0345,0.0,3.5,106.0,4.4,'11111222,11111222,11111222' 
TCOON,ioos:station:TCOON:146:1,2019-10-24T03:30:00Z,28.1324,-97.0345,0.0,3.2,109.0,3.7,'11111222,11111222,11111222' 
TCOON,ioos:station:TCOON:146:1,2019-10-24T04:30:00Z,28.1324,-97.0345,0.0,2.6,107.0,3.3,'11111222,11111222,11111222' 
TCOON,ioos:station:TCOON:146:1,2019-10-24T05:30:00Z,28.1324,-97.0345,0.0,2.8,109.0,3.2,'11111222,11111222,11111222' 
TCOON,ioos:station:TCOON:146:1,2019-10-24T06:30:00Z,28.1324,-97.0345,0.0,2.6,115.0,3.1,'11111222,11111222,11111222' 
TCOON,ioos:station:TCOON:146:1,2019-10-24T07:30:00Z,28.1324,-97.0345,0.0,2.5,111.0,3.0,'11111222,11111222,11111222' 
TCOON,ioos:station:TCOON:146:1,2019-10-24T08:30:00Z,28.1324,-97.0345,0.0,1.8,100.0,2.1,'11111222,11111222,11111222' 
TCOON,ioos:station:TCOON:146:1,2019-10-24T09:30:00Z,28.1324,-97.0345,0.0,2.0,92.0,2.4,'11111222,11111222,11111222' 
TCOON,ioos:station:TCOON:146:1,2019-10-24T10:30:00Z,28.1324,-97.0345,0.0,1.9,93.0,2.5,'11111222,11111222,11111222' 
TCOON,ioos:station:TCOON:146:1,2019-10-24T11:30:00Z,28.1324,-97.0345,0.0,2.5,91.0,2.8,'11111222,11111222,11111222' 
TCOON,ioos:station:TCOON:146:1,2019-10-24T14:30:00Z,28.1324,-97.0345,0.0,2.9,75.0,3.5,'11111222,11111222,11111222' 
TCOON,ioos:station:TCOON:146:1,2019-10-24T15:30:00Z,28.1324,-97.0345,0.0,3.3,82.0,3.8,'11111222,11111222,11111222' 
TCOON,ioos:station:TCOON:146:1,2019-10-24T16:30:00Z,28.1324,-97.0345,0.0,3.6,79.0,4.2,'11111222,11111222,11111222' 
TCOON,ioos:station:TCOON:146:1,2019-10-24T17:30:00Z,28.1324,-97.0345,0.0,3.9,81.0,4.8,'11111222,11111222,11111222' 
TCOON,ioos:station:TCOON:146:1,2019-10-24T18:30:00Z,28.1324,-97.0345,0.0,3.5,77.0,4.4,'11111222,11111222,11111222' 
TCOON,ioos:station:TCOON:146:1,2019-10-24T19:30:00Z,28.1324,-97.0345,0.0,4.2,76.0,5.5,'11111222,11111222,11111222' 
TCOON,ioos:station:TCOON:146:1,2019-10-24T20:30:00Z,28.1324,-97.0345,0.0,4.6,71.0,6.4,'11111222,11111222,11111222' 
TCOON,ioos:station:TCOON:146:1,2019-10-24T21:30:00Z,28.1324,-97.0345,0.0,3.6,83.0,4.6,'11111222,11111222,11111222' 
TCOON,ioos:station:TCOON:146:1,2019-10-24T22:30:00Z,28.1324,-97.0345,0.0,3.4,74.0,4.4,'11111222,11111222,11111222' 
TCOON,ioos:station:TCOON:146:1,2019-10-24T23:30:00Z,28.1324,-97.0345,0.0,3.4,74.0,4.2,'11111222,11111222,11111222' 
TCOON,ioos:station:TCOON:146:1,2019-10-25T00:30:00Z,28.1324,-97.0345,0.0,2.9,75.0,3.9,'11111222,11111222,11111222' 
TCOON,ioos:station:TCOON:146:1,2019-10-25T01:30:00Z,28.1324,-97.0345,0.0,1.9,74.0,2.4,'11111222,11111222,11111222' 
TCOON,ioos:station:TCOON:146:1,2019-10-25T02:30:00Z,28.1324,-97.0345,0.0,3.1,116.0,3.8,'11111222,11111222,11111222' 
TCOON,ioos:station:TCOON:146:1,2019-10-25T03:30:00Z,28.1324,-97.0345,0.0,3.3,120.0,4.4,'11111222,11111222,11111222' 
TCOON,ioos:station:TCOON:146:1,2019-10-25T04:30:00Z,28.1324,-97.0345,0.0,1.0,114.0,1.7,'11111222,11111222,11111222' 
TCOON,ioos:station:TCOON:146:1,2019-10-25T05:30:00Z,28.1324,-97.0345,0.0,1.0,321.0,2.9,'11111222,11111222,11111222' 
TCOON,ioos:station:TCOON:146:1,2019-10-25T06:30:00Z,28.1324,-97.0345,0.0,8.3,323.0,10.8,'11111222,11111222,11111222' 
TCOON,ioos:station:TCOON:146:1,2019-10-25T07:30:00Z,28.1324,-97.0345,0.0,8.5,323.0,10.3,'11111222,11111222,11111222' 
TCOON,ioos:station:TCOON:146:1,2019-10-25T08:30:00Z,28.1324,-97.0345,0.0,7.7,326.0,9.3,'11111222,11111222,11111222' 
TCOON,ioos:station:TCOON:146:1,2019-10-25T09:30:00Z,28.1324,-97.0345,0.0,7.7,323.0,9.6,'11111222,11111222,11111222' 
TCOON,ioos:station:TCOON:146:1,2019-10-25T10:30:00Z,28.1324,-97.0345,0.0,8.1,311.0,9.9,'11111222,11111222,11111222' 
TCOON,ioos:station:TCOON:146:1,2019-10-25T11:30:00Z,28.1324,-97.0345,0.0,7.6,312.0,9.2,'11111222,11111222,11111222' 
TCOON,ioos:station:TCOON:146:1,2019-10-25T12:30:00Z,28.1324,-97.0345,0.0,7.6,308.0,9.6,'11111222,11111222,11111222' 
TCOON,ioos:station:TCOON:146:1,2019-10-25T13:30:00Z,28.1324,-97.0345,0.0,8.0,307.0,9.9,'11111222,11111222,11111222' 
TCOON,ioos:station:TCOON:146:1,2019-10-25T14:30:00Z,28.1324,-97.0345,0.0,7.7,304.0,10.5,'11111222,11111222,11111222' 
TCOON,ioos:station:TCOON:146:1,2019-10-25T15:30:00Z,28.1324,-97.0345,0.0,8.1,301.0,10.2,'11111222,11111222,11111222' 
TCOON,ioos:station:TCOON:146:1,2019-10-25T16:30:00Z,28.1324,-97.0345,0.0,8.2,298.0,10.0,'11111222,11111222,11111222' 
TCOON,ioos:station:TCOON:146:1,2019-10-25T17:30:00Z,28.1324,-97.0345,0.0,7.8,297.0,9.6,'11111222,11111222,11111222' 
TCOON,ioos:station:TCOON:146:1,2019-10-25T18:30:00Z,28.1324,-97.0345,0.0,7.6,297.0,9.8,'11111222,11111222,11111222' 
TCOON,ioos:station:TCOON:146:1,2019-10-25T19:30:00Z,28.1324,-97.0345,0.0,7.3,295.0,8.6,'11111222,11111222,11111222' 
TCOON,ioos:station:TCOON:146:1,2019-10-25T20:30:00Z,28.1324,-97.0345,0.0,7.1,294.0,9.0,'11111222,11111222,11111222' 
TCOON,ioos:station:TCOON:146:1,2019-10-25T21:30:00Z,28.1324,-97.0345,0.0,7.3,311.0,9.1,'11111222,11111222,11111222' 
TCOON,ioos:station:TCOON:146:1,2019-10-25T22:30:00Z,28.1324,-97.0345,0.0,7.2,299.0,8.7,'11111222,11111222,11111222' 
TCOON,ioos:station:TCOON:146:1,2019-10-25T23:30:00Z,28.1324,-97.0345,0.0,6.0,303.0,7.2,'11111222,11111222,11111222' 
TCOON,ioos:station:TCOON:146:1,2019-10-26T00:30:00Z,28.1324,-97.0345,0.0,4.5,308.0,5.4,'11111222,11111222,11111222' 
TCOON,ioos:station:TCOON:146:1,2019-10-26T01:30:00Z,28.1324,-97.0345,0.0,4.8,319.0,6.1,'11111222,11111222,11111222' 
TCOON,ioos:station:TCOON:146:1,2019-10-26T02:30:00Z,28.1324,-97.0345,0.0,4.6,324.0,5.6,'11111222,11111222,11111222' 
TCOON,ioos:station:TCOON:146:1,2019-10-26T03:30:00Z,28.1324,-97.0345,0.0,3.3,318.0,4.4,'11111222,11111222,11111222' 
TCOON,ioos:station:TCOON:146:1,2019-10-26T04:30:00Z,28.1324,-97.0345,0.0,4.2,310.0,5.2,'11111222,11111222,11111222' 
TCOON,ioos:station:TCOON:146:1,2019-10-26T05:30:00Z,28.1324,-97.0345,0.0,4.3,299.0,5.5,'11111222,11111222,11111222' 
TCOON,ioos:station:TCOON:146:1,2019-10-26T07:00:00Z,28.1324,-97.0345,0.0,4.7,297.0,5.7,'11111222,11111222,11111222' 
TCOON,ioos:station:TCOON:146:1,2019-10-26T07:30:00Z,28.1324,-97.0345,0.0,4.6,297.0,5.7,'11111222,11111222,11111222' 
TCOON,ioos:station:TCOON:146:1,2019-10-26T08:30:00Z,28.1324,-97.0345,0.0,3.8,297.0,4.5,'11111222,11111222,11111222' 
TCOON,ioos:station:TCOON:146:1,2019-10-26T09:30:00Z,28.1324,-97.0345,0.0,4.0,286.0,5.1,'11111222,11111222,11111222' 
TCOON,ioos:station:TCOON:146:1,2019-10-26T10:30:00Z,28.1324,-97.0345,0.0,5.4,276.0,6.7,'11111222,11111222,11111222' 
TCOON,ioos:station:TCOON:146:1,2019-10-26T11:30:00Z,28.1324,-97.0345,0.0,5.8,271.0,6.7,'11111222,11111222,11111222' 
TCOON,ioos:station:TCOON:146:1,2019-10-26T12:30:00Z,28.1324,-97.0345,0.0,5.3,267.0,6.3,'11111222,11111222,11111222' 
TCOON,ioos:station:TCOON:146:1,2019-10-26T13:30:00Z,28.1324,-97.0345,0.0,4.8,263.0,5.9,'11111222,11111222,11111222' 
TCOON,ioos:station:TCOON:146:1,2019-10-26T14:30:00Z,28.1324,-97.0345,0.0,4.0,262.0,5.4,'11111222,11111222,11111222' 
TCOON,ioos:station:TCOON:146:1,2019-10-26T15:30:00Z,28.1324,-97.0345,0.0,3.7,271.0,4.6,'11111222,11111222,11111222' 
TCOON,ioos:station:TCOON:146:1,2019-10-26T16:30:00Z,28.1324,-97.0345,0.0,2.5,262.0,3.9,'11111222,11111222,11111222' 
TCOON,ioos:station:TCOON:146:1,2019-10-26T17:30:00Z,28.1324,-97.0345,0.0,1.8,247.0,2.7,'11111222,11111222,11111222' 
TCOON,ioos:station:TCOON:146:1,2019-10-26T18:30:00Z,28.1324,-97.0345,0.0,2.0,232.0,2.9,'11111222,11111222,11111222' 
TCOON,ioos:station:TCOON:146:1,2019-10-26T19:30:00Z,28.1324,-97.0345,0.0,1.6,247.0,2.6,'11111222,11111222,11111222' 
TCOON,ioos:station:TCOON:146:1,2019-10-26T20:30:00Z,28.1324,-97.0345,0.0,2.9,273.0,3.9,'11111222,11111222,11111222' 
TCOON,ioos:station:TCOON:146:1,2019-10-26T21:30:00Z,28.1324,-97.0345,0.0,2.7,288.0,3.8,'11111222,11111222,11111222' 
TCOON,ioos:station:TCOON:146:1,2019-10-26T22:30:00Z,28.1324,-97.0345,0.0,2.2,276.0,3.0,'11111222,11111222,11111222' 
TCOON,ioos:station:TCOON:146:1,2019-10-26T23:30:00Z,28.1324,-97.0345,0.0,1.5,276.0,2.3,'11111222,11111222,11111222' 
TCOON,ioos:station:TCOON:146:1,2019-10-27T00:30:00Z,28.1324,-97.0345,0.0,0.3,278.0,0.4,'11111222,11111222,11111222' 
TCOON,ioos:station:TCOON:146:1,2019-10-27T01:30:00Z,28.1324,-97.0345,0.0,1.0,194.0,1.7,'11111222,11111222,11111222' 
TCOON,ioos:station:TCOON:146:1,2019-10-27T02:30:00Z,28.1324,-97.0345,0.0,0.8,166.0,1.3,'11111222,11111222,11111222' 
TCOON,ioos:station:TCOON:146:1,2019-10-27T03:30:00Z,28.1324,-97.0345,0.0,0.7,81.0,1.1,'11111222,11111222,11111222' 
TCOON,ioos:station:TCOON:146:1,2019-10-27T04:30:00Z,28.1324,-97.0345,0.0,1.0,62.0,1.4,'11111222,11111222,11111222' 
TCOON,ioos:station:TCOON:146:1,2019-10-27T05:30:00Z,28.1324,-97.0345,0.0,1.5,59.0,1.9,'11111222,11111222,11111222' 
TCOON,ioos:station:TCOON:146:1,2019-10-27T06:30:00Z,28.1324,-97.0345,0.0,1.8,68.0,2.1,'11111222,11111222,11111222' 
TCOON,ioos:station:TCOON:146:1,2019-10-27T07:30:00Z,28.1324,-97.0345,0.0,1.5,85.0,1.7,'11111222,11111222,11111222' 
TCOON,ioos:station:TCOON:146:1,2019-10-27T08:30:00Z,28.1324,-97.0345,0.0,0.9,110.0,1.2,'11111222,11111222,11111222' 
TCOON,ioos:station:TCOON:146:1,2019-10-27T09:30:00Z,28.1324,-97.0345,0.0,0.5,125.0,0.7,'11111222,11111222,11111222' 
TCOON,ioos:station:TCOON:146:1,2019-10-27T10:30:00Z,28.1324,-97.0345,0.0,0.5,181.0,0.8,'11111222,11111222,11111222' 
TCOON,ioos:station:TCOON:146:1,2019-10-27T11:30:00Z,28.1324,-97.0345,0.0,0.7,255.0,1.4,'11111222,11111222,11111222' 
TCOON,ioos:station:TCOON:146:1,2019-10-27T12:30:00Z,28.1324,-97.0345,0.0,1.3,258.0,1.8,'11111222,11111222,11111222' 
TCOON,ioos:station:TCOON:146:1,2019-10-27T13:30:00Z,28.1324,-97.0345,0.0,1.6,290.0,1.9,'11111222,11111222,11111222' 
TCOON,ioos:station:TCOON:146:1,2019-10-27T14:30:00Z,28.1324,-97.0345,0.0,1.8,313.0,2.1,'11111222,11111222,11111222' 
TCOON,ioos:station:TCOON:146:1,2019-10-27T15:30:00Z,28.1324,-97.0345,0.0,1.4,323.0,1.6,'11111222,11111222,11111222' 
TCOON,ioos:station:TCOON:146:1,2019-10-27T16:30:00Z,28.1324,-97.0345,0.0,0.1,323.0,0.6,'11111222,11111222,11111222' 
TCOON,ioos:station:TCOON:146:1,2019-10-27T17:30:00Z,28.1324,-97.0345,0.0,0.6,302.0,0.8,'11111222,11111222,11111222' 
TCOON,ioos:station:TCOON:146:1,2019-10-27T18:30:00Z,28.1324,-97.0345,0.0,0.5,45.0,0.9,'11111222,11111222,11111222' 
TCOON,ioos:station:TCOON:146:1,2019-10-27T19:30:00Z,28.1324,-97.0345,0.0,0.5,79.0,0.7,'11111222,11111222,11111222' 
TCOON,ioos:station:TCOON:146:1,2019-10-27T20:30:00Z,28.1324,-97.0345,0.0,1.5,101.0,1.9,'11111222,11111222,11111222' 
TCOON,ioos:station:TCOON:146:1,2019-10-27T21:30:00Z,28.1324,-97.0345,0.0,2.3,108.0,2.7,'11111222,11111222,11111222' 
TCOON,ioos:station:TCOON:146:1,2019-10-27T22:30:00Z,28.1324,-97.0345,0.0,2.0,105.0,2.3,'11111222,11111222,11111222' 
TCOON,ioos:station:TCOON:146:1,2019-10-27T23:30:00Z,28.1324,-97.0345,0.0,2.2,109.0,2.7,'11111222,11111222,11111222' 
TCOON,ioos:station:TCOON:146:1,2019-10-28T00:30:00Z,28.1324,-97.0345,0.0,1.8,106.0,2.1,'11111222,11111222,11111222' 
TCOON,ioos:station:TCOON:146:1,2019-10-28T01:30:00Z,28.1324,-97.0345,0.0,1.9,100.0,2.2,'11111222,11111222,11111222' 
TCOON,ioos:station:TCOON:146:1,2019-10-28T02:30:00Z,28.1324,-97.0345,0.0,2.1,108.0,2.4,'11111222,11111222,11111222' 
TCOON,ioos:station:TCOON:146:1,2019-10-28T03:30:00Z,28.1324,-97.0345,0.0,1.8,110.0,2.1,'11111222,11111222,11111222' 
TCOON,ioos:station:TCOON:146:1,2019-10-28T04:30:00Z,28.1324,-97.0345,0.0,1.7,110.0,1.9,'11111222,11111222,11111222' 
TCOON,ioos:station:TCOON:146:1,2019-10-28T05:30:00Z,28.1324,-97.0345,0.0,1.9,110.0,2.2,'11111222,11111222,11111222' 
TCOON,ioos:station:TCOON:146:1,2019-10-28T06:30:00Z,28.1324,-97.0345,0.0,1.9,113.0,2.4,'11111222,11111222,11111222' 
TCOON,ioos:station:TCOON:146:1,2019-10-28T07:30:00Z,28.1324,-97.0345,0.0,1.6,129.0,1.9,'11111222,11111222,11111222' 
TCOON,ioos:station:TCOON:146:1,2019-10-28T08:30:00Z,28.1324,-97.0345,0.0,1.0,112.0,1.3,'11111222,11111222,11111222' 
TCOON,ioos:station:TCOON:146:1,2019-10-28T09:30:00Z,28.1324,-97.0345,0.0,1.5,120.0,1.8,'11111222,11111222,11111222' 
TCOON,ioos:station:TCOON:146:1,2019-10-28T10:30:00Z,28.1324,-97.0345,0.0,0.6,101.0,0.8,'11111222,11111222,11111222' 
TCOON,ioos:station:TCOON:146:1,2019-10-28T11:30:00Z,28.1324,-97.0345,0.0,0.8,63.0,1.1,'11111222,11111222,11111222' 
TCOON,ioos:station:TCOON:146:1,2019-10-28T12:30:00Z,28.1324,-97.0345,0.0,0.3,10.0,0.6,'11111222,11111222,11111222' 
TCOON,ioos:station:TCOON:146:1,2019-10-28T13:30:00Z,28.1324,-97.0345,0.0,1.3,90.0,1.5,'11111222,11111222,11111222' 
TCOON,ioos:station:TCOON:146:1,2019-10-28T14:30:00Z,28.1324,-97.0345,0.0,0.5,87.0,1.5,'11111222,11111222,11111222' 
TCOON,ioos:station:TCOON:146:1,2019-10-28T15:30:00Z,28.1324,-97.0345,0.0,0.6,94.0,1.5,'11111222,11111222,11111222' 
TCOON,ioos:station:TCOON:146:1,2019-10-28T16:30:00Z,28.1324,-97.0345,0.0,0.6,102.0,1.2,'11111222,11111222,11111222' 
TCOON,ioos:station:TCOON:146:1,2019-10-28T17:30:00Z,28.1324,-97.0345,0.0,1.3,124.0,1.5,'11111222,11111222,11111222' 
TCOON,ioos:station:TCOON:146:1,2019-10-28T18:30:00Z,28.1324,-97.0345,0.0,1.6,108.0,1.9,'11111222,11111222,11111222' 
TCOON,ioos:station:TCOON:146:1,2019-10-28T19:30:00Z,28.1324,-97.0345,0.0,1.8,107.0,2.2,'11111222,11111222,11111222' 
TCOON,ioos:station:TCOON:146:1,2019-10-28T20:30:00Z,28.1324,-97.0345,0.0,2.3,105.0,2.7,'11111222,11111222,11111222' 
TCOON,ioos:station:TCOON:146:1,2019-10-28T21:30:00Z,28.1324,-97.0345,0.0,2.9,105.0,3.3,'11111222,11111222,11111222' 
TCOON,ioos:station:TCOON:146:1,2019-10-28T22:30:00Z,28.1324,-97.0345,0.0,2.7,90.0,3.2,'11111222,11111222,11111222' 
TCOON,ioos:station:TCOON:146:1,2019-10-28T23:30:00Z,28.1324,-97.0345,0.0,2.7,81.0,3.1,'11111222,11111222,11111222' 
TCOON,ioos:station:TCOON:146:1,2019-10-29T00:30:00Z,28.1324,-97.0345,0.0,2.9,73.0,3.2,'11111222,11111222,11111222' 
TCOON,ioos:station:TCOON:146:1,2019-10-29T01:30:00Z,28.1324,-97.0345,0.0,2.2,64.0,2.5,'11111222,11111222,11111222' 
TCOON,ioos:station:TCOON:146:1,2019-10-29T02:30:00Z,28.1324,-97.0345,0.0,2.0,71.0,2.4,'11111222,11111222,11111222' 
TCOON,ioos:station:TCOON:146:1,2019-10-29T03:30:00Z,28.1324,-97.0345,0.0,1.9,70.0,2.2,'11111222,11111222,11111222' 
TCOON,ioos:station:TCOON:146:1,2019-10-29T04:30:00Z,28.1324,-97.0345,0.0,1.7,34.0,2.0,'11111222,11111222,11111222' 
TCOON,ioos:station:TCOON:146:1,2019-10-29T05:30:00Z,28.1324,-97.0345,0.0,1.8,47.0,2.6,'11111222,11111222,11111222' 
TCOON,ioos:station:TCOON:146:1,2019-10-29T06:30:00Z,28.1324,-97.0345,0.0,2.3,55.0,2.9,'11111222,11111222,11111222' 
TCOON,ioos:station:TCOON:146:1,2019-10-29T07:30:00Z,28.1324,-97.0345,0.0,1.6,85.0,2.2,'11111222,11111222,11111222' 
TCOON,ioos:station:TCOON:146:1,2019-10-29T08:30:00Z,28.1324,-97.0345,0.0,1.4,60.0,2.1,'11111222,11111222,11111222' 
TCOON,ioos:station:TCOON:146:1,2019-10-29T09:30:00Z,28.1324,-97.0345,0.0,2.6,61.0,3.1,'11111222,11111222,11111222' 
TCOON,ioos:station:TCOON:146:1,2019-10-29T10:30:00Z,28.1324,-97.0345,0.0,2.5,68.0,2.9,'11111222,11111222,11111222' 
TCOON,ioos:station:TCOON:146:1,2019-10-29T11:30:00Z,28.1324,-97.0345,0.0,1.7,113.0,3.4,'11111222,11111222,11111222' 
TCOON,ioos:station:TCOON:146:1,2019-10-29T12:30:00Z,28.1324,-97.0345,0.0,1.5,48.0,1.9,'11111222,11111222,11111222' 
TCOON,ioos:station:TCOON:146:1,2019-10-29T13:30:00Z,28.1324,-97.0345,0.0,0.9,347.0,1.4,'11111222,11111222,11111222' 
TCOON,ioos:station:TCOON:146:1,2019-10-29T14:30:00Z,28.1324,-97.0345,0.0,1.5,25.0,1.7,'11111222,11111222,11111222' 
TCOON,ioos:station:TCOON:146:1,2019-10-29T15:30:00Z,28.1324,-97.0345,0.0,0.7,56.0,1.0,'11111222,11111222,11111222' 
TCOON,ioos:station:TCOON:146:1,2019-10-29T16:30:00Z,28.1324,-97.0345,0.0,1.2,77.0,1.4,'11111222,11111222,11111222' 
TCOON,ioos:station:TCOON:146:1,2019-10-29T17:30:00Z,28.1324,-97.0345,0.0,1.8,98.0,1.9,'11111222,11111222,11111222' 
TCOON,ioos:station:TCOON:146:1,2019-10-29T18:30:00Z,28.1324,-97.0345,0.0,1.5,107.0,1.8,'11111222,11111222,11111222' 
TCOON,ioos:station:TCOON:146:1,2019-10-29T19:30:00Z,28.1324,-97.0345,0.0,1.8,88.0,2.1,'11111222,11111222,11111222' 
TCOON,ioos:station:TCOON:146:1,2019-10-29T20:30:00Z,28.1324,-97.0345,0.0,1.9,82.0,2.1,'11111222,11111222,11111222' 
TCOON,ioos:station:TCOON:146:1,2019-10-29T21:30:00Z,28.1324,-97.0345,0.0,2.2,82.0,2.7,'11111222,11111222,11111222' 
TCOON,ioos:station:TCOON:146:1,2019-10-29T22:30:00Z,28.1324,-97.0345,0.0,2.9,80.0,3.3,'11111222,11111222,11111222' 
TCOON,ioos:station:TCOON:146:1,2019-10-29T23:30:00Z,28.1324,-97.0345,0.0,3.4,55.0,4.2,'11111222,11111222,11111222' 
TCOON,ioos:station:TCOON:146:1,2019-10-30T00:30:00Z,28.1324,-97.0345,0.0,3.3,51.0,4.2,'11111222,11111222,11111222' 
TCOON,ioos:station:TCOON:146:1,2019-10-30T01:30:00Z,28.1324,-97.0345,0.0,3.5,54.0,4.2,'11111222,11111222,11111222' 
TCOON,ioos:station:TCOON:146:1,2019-10-30T02:30:00Z,28.1324,-97.0345,0.0,2.9,51.0,3.5,'11111222,11111222,11111222' 
TCOON,ioos:station:TCOON:146:1,2019-10-30T03:30:00Z,28.1324,-97.0345,0.0,2.9,62.0,3.3,'11111222,11111222,11111222' 
TCOON,ioos:station:TCOON:146:1,2019-10-30T04:30:00Z,28.1324,-97.0345,0.0,2.4,60.0,2.8,'11111222,11111222,11111222' 
TCOON,ioos:station:TCOON:146:1,2019-10-30T05:30:00Z,28.1324,-97.0345,0.0,2.1,73.0,2.4,'11111222,11111222,11111222' 
TCOON,ioos:station:TCOON:146:1,2019-10-30T06:30:00Z,28.1324,-97.0345,0.0,1.4,54.0,1.6,'11111222,11111222,11111222' 
TCOON,ioos:station:TCOON:146:1,2019-10-30T07:30:00Z,28.1324,-97.0345,0.0,1.9,74.0,2.1,'11111222,11111222,11111222' 
TCOON,ioos:station:TCOON:146:1,2019-10-30T08:30:00Z,28.1324,-97.0345,0.0,1.5,98.0,1.9,'11111222,11111222,11111222' 
TCOON,ioos:station:TCOON:146:1,2019-10-30T09:30:00Z,28.1324,-97.0345,0.0,1.7,112.0,2.0,'11111222,11111222,11111222' 
TCOON,ioos:station:TCOON:146:1,2019-10-30T10:30:00Z,28.1324,-97.0345,0.0,1.8,107.0,2.2,'11111222,11111222,11111222' 
TCOON,ioos:station:TCOON:146:1,2019-10-30T11:30:00Z,28.1324,-97.0345,0.0,0.6,95.0,1.0,'11111222,11111222,11111222' 
TCOON,ioos:station:TCOON:146:1,2019-10-30T12:30:00Z,28.1324,-97.0345,0.0,0.8,15.0,2.1,'11111222,11111222,11111222' 
TCOON,ioos:station:TCOON:146:1,2019-10-30T13:30:00Z,28.1324,-97.0345,0.0,4.1,338.0,5.0,'11111222,11111222,11111222' 
TCOON,ioos:station:TCOON:146:1,2019-10-30T14:30:00Z,28.1324,-97.0345,0.0,4.7,340.0,5.7,'11111222,11111222,11111222' 
TCOON,ioos:station:TCOON:146:1,2019-10-30T15:30:00Z,28.1324,-97.0345,0.0,4.6,343.0,5.5,'11111222,11111222,11111222' 
TCOON,ioos:station:TCOON:146:1,2019-10-30T16:30:00Z,28.1324,-97.0345,0.0,4.6,339.0,6.1,'11111222,11111222,11111222' 
TCOON,ioos:station:TCOON:146:1,2019-10-30T17:30:00Z,28.1324,-97.0345,0.0,4.6,347.0,5.5,'11111222,11111222,11111222' 
TCOON,ioos:station:TCOON:146:1,2019-10-30T18:30:00Z,28.1324,-97.0345,0.0,4.7,338.0,5.7,'11111222,11111222,11111222' 
TCOON,ioos:station:TCOON:146:1,2019-10-30T19:30:00Z,28.1324,-97.0345,0.0,5.4,332.0,6.8,'11111222,11111222,11111222' 
TCOON,ioos:station:TCOON:146:1,2019-10-30T20:30:00Z,28.1324,-97.0345,0.0,5.3,331.0,6.7,'11111222,11111222,11111222' 
TCOON,ioos:station:TCOON:146:1,2019-10-30T21:30:00Z,28.1324,-97.0345,0.0,6.0,327.0,7.3,'11111222,11111222,11111222' 
TCOON,ioos:station:TCOON:146:1,2019-10-30T22:30:00Z,28.1324,-97.0345,0.0,6.8,328.0,8.5,'11111222,11111222,11111222' 
TCOON,ioos:station:TCOON:146:1,2019-10-30T23:30:00Z,28.1324,-97.0345,0.0,7.4,327.0,9.0,'11111222,11111222,11111222' 
TCOON,ioos:station:TCOON:146:1,2019-10-31T00:30:00Z,28.1324,-97.0345,0.0,7.2,320.0,9.1,'11111222,11111222,11111222' 
TCOON,ioos:station:TCOON:146:1,2019-10-31T01:30:00Z,28.1324,-97.0345,0.0,8.3,323.0,10.3,'11111222,11111222,11111222' 
TCOON,ioos:station:TCOON:146:1,2019-10-31T02:30:00Z,28.1324,-97.0345,0.0,8.3,327.0,11.0,'11111222,11111222,11111222' 
TCOON,ioos:station:TCOON:146:1,2019-10-31T03:30:00Z,28.1324,-97.0345,0.0,7.7,327.0,10.2,'11111222,11111222,11111222' 
TCOON,ioos:station:TCOON:146:1,2019-10-31T04:30:00Z,28.1324,-97.0345,0.0,7.2,324.0,8.6,'11111222,11111222,11111222' 
TCOON,ioos:station:TCOON:146:1,2019-10-31T05:30:00Z,28.1324,-97.0345,0.0,6.4,325.0,7.9,'11111222,11111222,11111222' 
TCOON,ioos:station:TCOON:146:1,2019-10-31T06:30:00Z,28.1324,-97.0345,0.0,7.4,327.0,10.2,'11111222,11111222,11111222' 
TCOON,ioos:station:TCOON:146:1,2019-10-31T07:30:00Z,28.1324,-97.0345,0.0,7.8,324.0,9.8,'11111222,11111222,11111222' 
TCOON,ioos:station:TCOON:146:1,2019-10-31T08:30:00Z,28.1324,-97.0345,0.0,7.7,323.0,9.7,'11111222,11111222,11111222' 
TCOON,ioos:station:TCOON:146:1,2019-10-31T09:30:00Z,28.1324,-97.0345,0.0,8.0,318.0,10.0,'11111222,11111222,11111222' 
TCOON,ioos:station:TCOON:146:1,2019-10-31T10:30:00Z,28.1324,-97.0345,0.0,6.7,313.0,8.2,'11111222,11111222,11111222' 
TCOON,ioos:station:TCOON:146:1,2019-10-31T11:30:00Z,28.1324,-97.0345,0.0,5.6,309.0,7.2,'11111222,11111222,11111222' 
TCOON,ioos:station:TCOON:146:1,2019-10-31T12:30:00Z,28.1324,-97.0345,0.0,6.0,305.0,7.3,'11111222,11111222,11111222' 
TCOON,ioos:station:TCOON:146:1,2019-10-31T13:30:00Z,28.1324,-97.0345,0.0,5.6,303.0,7.0,'11111222,11111222,11111222' 
TCOON,ioos:station:TCOON:146:1,2019-10-31T14:30:00Z,28.1324,-97.0345,0.0,6.0,305.0,7.5,'11111222,11111222,11111222' 
TCOON,ioos:station:TCOON:146:1,2019-10-31T15:30:00Z,28.1324,-97.0345,0.0,5.9,317.0,7.5,'11111222,11111222,11111222' 
TCOON,ioos:station:TCOON:146:1,2019-10-31T16:30:00Z,28.1324,-97.0345,0.0,5.7,314.0,7.1,'11111222,11111222,11111222' 
TCOON,ioos:station:TCOON:146:1,2019-10-31T17:30:00Z,28.1324,-97.0345,0.0,4.6,325.0,6.5,'11111222,11111222,11111222' 
TCOON,ioos:station:TCOON:146:1,2019-10-31T18:30:00Z,28.1324,-97.0345,0.0,4.7,319.0,5.9,'11111222,11111222,11111222' 
TCOON,ioos:station:TCOON:146:1,2019-10-31T19:30:00Z,28.1324,-97.0345,0.0,4.3,315.0,6.2,'11111222,11111222,11111222' 
TCOON,ioos:station:TCOON:146:1,2019-10-31T20:30:00Z,28.1324,-97.0345,0.0,4.6,316.0,6.1,'11111222,11111222,11111222' 
TCOON,ioos:station:TCOON:146:1,2019-10-31T21:30:00Z,28.1324,-97.0345,0.0,4.6,322.0,5.8,'11111222,11111222,11111222' 
TCOON,ioos:station:TCOON:146:1,2019-10-31T22:30:00Z,28.1324,-97.0345,0.0,4.6,318.0,5.8,'11111222,11111222,11111222' 
TCOON,ioos:station:TCOON:146:1,2019-10-31T23:30:00Z,28.1324,-97.0345,0.0,4.2,328.0,5.1,'11111222,11111222,11111222' 
 
DISCLAIMER: The Gulf of Mexico Coastal and Ocean Observing (GCOOS) Data Portal aggregates data from the regional data providers for the convenience of all data users. Data published on this website should not be used for navigation or certain other uses as we cannot guarantee data accuracy or availability. The data and delivery services are provided 'as is' without warranty of any kind. Data Source: Gulf of Mexico Coastal Ocean Observing System Data Portal (http://data.gcoos.org/) 
